Location: Newark
(50.0306°N, 2.3272°E)
Time: 01:50:32
(UTC+00:00)

Transit 2A Rocket - Pass Details

Date: 08 December 2019
Orbit: 593 x 910 km, 66.7° (Epoch: 25 January)

Event Time Altitude Azimuth Distance (km) Brightness Sun altitude
Rises 01:17:31 0° 322° (NW) 2,857 - -56.9°
Reaches altitude 10° 01:19:43 10° 322° (NW) 1,967 - -56.7°
Maximum altitude 01:24:08 83° 236° (SW) 643 - -56.2°
Drops below altitude 10° 01:28:49 10° 148° (SSE) 2,087 - -55.6°
Sets 01:31:12 0° 148° (SSE) 3,045 - -55.3°
